• In Czech Republic
  • List of Countries
  • For 7 days
  • Water Temperature
  • Satellite Maps
  • Weather Map
  • Weather Widgets
  • user-avatar
    Login

    Hourly Weather Zaboryszki

    Today, 20 April, Friday

    Time Temperature Precipitation Wind Pressure Humidity
    00:00 +5°C° 0 mm 3 mps 754 mmHg 82%
    01:00 +5°C° 0 mm 3 mps 754 mmHg 85%
    02:00 +5°C° 0 mm 2 mps 754 mmHg 90%
    03:00 +5°C° 0 mm 2 mps 754 mmHg 90%
    04:00 +5°C° 0 mm 2 mps 754 mmHg 91%
    05:00 +4°C° 0 mm 2 mps 754 mmHg 92%
    06:00 +6°C° 0 mm 2 mps 754 mmHg 85%
    07:00 +7°C° 0 mm 2 mps 754 mmHg 79%
    08:00 +9°C° 0 mm 2 mps 754 mmHg 71%
    09:00 +12°C° 0 mm 2 mps 754 mmHg 64%
    10:00 +13°C° 0 mm 2 mps 754 mmHg 57%
    11:00 +14°C° 0 mm 3 mps 753 mmHg 50%
    12:00 +16°C° 0 mm 3 mps 753 mmHg 48%
    13:00 +18°C° 0 mm 3 mps 753 mmHg 46%
    14:00 +19°C° 0 mm 3 mps 752 mmHg 44%
    15:00 +19°C° 0 mm 3 mps 752 mmHg 46%
    16:00 +19°C° 0 mm 3 mps 751 mmHg 48%
    17:00 +19°C° 0 mm 4 mps 750 mmHg 50%
    18:00 +17°C° 0 mm 3 mps 750 mmHg 57%
    19:00 +14°C° 0 mm 3 mps 749 mmHg 63%
    20:00 +14°C° 0 mm 2 mps 749 mmHg 70%
    21:00 +12°C° 0 mm 3 mps 748 mmHg 70%
    22:00 +12°C° 0 mm 4 mps 748 mmHg 70%
    23:00 +11°C° 0 mm 4 mps 747 mmHg 70%

    Tomorrow, 21 April, Saturday

    Time Temperature Precipitation Wind Pressure Humidity
    00:00 +12°C° 0 mm 5 mps 746 mmHg 68%
    01:00 +12°C° 0 mm 5 mps 746 mmHg 67%
    02:00 +12°C° 0 mm 5 mps 745 mmHg 65%
    03:00 +11°C° 0 mm 6 mps 744 mmHg 66%
    04:00 +11°C° 0 mm 6 mps 743 mmHg 66%
    05:00 +11°C° 0 mm 6 mps 742 mmHg 67%
    06:00 +11°C° 0 mm 6 mps 742 mmHg 69%
    07:00 +12°C° 0 mm 7 mps 742 mmHg 71%
    08:00 +14°C° 0 mm 7 mps 742 mmHg 74%
    09:00 +13°C° 0 mm 8 mps 742 mmHg 68%
    10:00 +15°C° 0 mm 8 mps 742 mmHg 63%
    11:00 +15°C° 0 mm 8 mps 742 mmHg 57%
    12:00 +15°C° 0 mm 8 mps 742 mmHg 53%
    13:00 +15°C° 0 mm 8 mps 743 mmHg 49%
    14:00 +16°C° 0 mm 8 mps 743 mmHg 44%
    15:00 +15°C° 0 mm 8 mps 743 mmHg 47%
    16:00 +14°C° 0 mm 7 mps 743 mmHg 50%
    17:00 +14°C° 0 mm 7 mps 744 mmHg 52%
    18:00 +11°C° 0 mm 6 mps 744 mmHg 58%
    19:00 +9°C° 0 mm 5 mps 744 mmHg 64%
    20:00 +8°C° 0 mm 5 mps 744 mmHg 69%
    21:00 +7°C° 0 mm 5 mps 744 mmHg 72%
    22:00 +6°C° 0 mm 4 mps 744 mmHg 74%
    23:00 +6°C° 0 mm 4 mps 744 mmHg 76%

    Day after tomorrow, 22 April, Sunday

    Time Temperature Precipitation Wind Pressure Humidity
    00:00 +5°C° 0 mm 4 mps 744 mmHg 78%
    01:00 +5°C° 0 mm 4 mps 744 mmHg 80%
    02:00 +4°C° 0 mm 4 mps 745 mmHg 82%
    03:00 +4°C° 0 mm 4 mps 744 mmHg 83%
    04:00 +4°C° 0 mm 4 mps 744 mmHg 85%
    05:00 +3°C° 0 mm 4 mps 744 mmHg 87%
    06:00 +5°C° 0 mm 4 mps 744 mmHg 81%
    07:00 +6°C° 0 mm 4 mps 745 mmHg 76%
    08:00 +7°C° 0 mm 4 mps 745 mmHg 70%
    09:00 +10°C° 0 mm 4 mps 745 mmHg 63%
    10:00 +12°C° 0 mm 4 mps 745 mmHg 56%
    11:00 +14°C° 0 mm 5 mps 745 mmHg 48%
    12:00 +15°C° 0 mm 5 mps 745 mmHg 47%
    13:00 +15°C° 0 mm 5 mps 745 mmHg 46%
    14:00 +16°C° 0 mm 5 mps 745 mmHg 45%
    15:00 +15°C° 0 mm 5 mps 745 mmHg 46%
    16:00 +15°C° 0 mm 5 mps 744 mmHg 48%
    17:00 +14°C° 0 mm 5 mps 744 mmHg 50%
    18:00 +13°C° 0 mm 4 mps 744 mmHg 57%
    19:00 +11°C° 0 mm 4 mps 745 mmHg 64%
    20:00 +9°C° 0 mm 3 mps 745 mmHg 72%
    21:00 +8°C° 0 mm 3 mps 745 mmHg 75%
    22:00 +7°C° 0 mm 2 mps 745 mmHg 77%
    23:00 +6°C° 0 mm 2 mps 745 mmHg 80%

    23 April, Monday

    Time Temperature Precipitation Wind Pressure Humidity
    00:00 +5°C° 0 mm 2 mps 745 mmHg 81%
    01:00 +6°C° 0 mm 1 mps 745 mmHg 81%
    02:00 +5°C° 0 mm 1 mps 745 mmHg 82%
    03:00 +5°C° 0 mm 1 mps 745 mmHg 82%
    04:00 +5°C° 0 mm 1 mps 745 mmHg 82%
    05:00 +4°C° 0 mm 1 mps 745 mmHg 82%
    06:00 +6°C° 0 mm 1 mps 745 mmHg 76%
    07:00 +8°C° 0 mm 1 mps 745 mmHg 70%
    08:00 +8°C° 0 mm 2 mps 744 mmHg 64%
    09:00 +10°C° 0 mm 2 mps 744 mmHg 59%
    10:00 +12°C° 0 mm 3 mps 744 mmHg 53%
    11:00 +14°C° 0 mm 3 mps 743 mmHg 48%
    12:00 +14°C° 0 mm 3 mps 743 mmHg 46%
    13:00 +15°C° 0 mm 4 mps 742 mmHg 45%
    14:00 +17°C° 0 mm 4 mps 742 mmHg 43%
    15:00 +16°C° 0.4 mm 3 mps 741 mmHg 51%
    16:00 +15°C° 0.4 mm 2 mps 741 mmHg 60%
    17:00 +14°C° 0.4 mm 2 mps 740 mmHg 68%
    18:00 +13°C° 0.4 mm 2 mps 740 mmHg 74%
    19:00 +12°C° 0.4 mm 2 mps 740 mmHg 81%
    20:00 +12°C° 0.4 mm 2 mps 740 mmHg 88%
    21:00 +10°C° 0.1 mm 2 mps 740 mmHg 89%
    22:00 +10°C° 0.1 mm 3 mps 740 mmHg 90%
    23:00 +10°C° 0.1 mm 3 mps 740 mmHg 91%

    24 April, Tuesday

    Time Temperature Precipitation Wind Pressure Humidity
    00:00 +10°C° 0.1 mm 3 mps 739 mmHg 91%
    01:00 +8°C° 0.1 mm 4 mps 739 mmHg 91%
    02:00 +8°C° 0.1 mm 4 mps 739 mmHg 91%
    03:00 +7°C° 0 mm 4 mps 740 mmHg 92%
    04:00 +6°C° 0 mm 4 mps 740 mmHg 93%
    05:00 +5°C° 0 mm 4 mps 740 mmHg 94%
    06:00 +6°C° 0 mm 4 mps 740 mmHg 90%
    07:00 +7°C° 0 mm 5 mps 741 mmHg 87%
    08:00 +7°C° 0 mm 5 mps 741 mmHg 83%
    09:00 +8°C° 0 mm 5 mps 741 mmHg 78%
    10:00 +9°C° 0 mm 6 mps 741 mmHg 73%
    11:00 +10°C° 0 mm 6 mps 741 mmHg 67%
    12:00 +10°C° 0 mm 6 mps 741 mmHg 66%
    13:00 +10°C° 0 mm 6 mps 741 mmHg 66%
    14:00 +10°C° 0 mm 6 mps 741 mmHg 65%
    15:00 +10°C° 0 mm 5 mps 741 mmHg 64%
    16:00 +10°C° 0 mm 5 mps 741 mmHg 64%
    17:00 +10°C° 0 mm 5 mps 741 mmHg 64%
    18:00 +10°C° 0 mm 4 mps 741 mmHg 69%
    19:00 +9°C° 0 mm 3 mps 741 mmHg 73%
    20:00 +8°C° 0 mm 2 mps 741 mmHg 78%
    21:00 +8°C° 0.1 mm 3 mps 741 mmHg 81%
    22:00 +7°C° 0.1 mm 4 mps 740 mmHg 84%
    23:00 +7°C° 0.1 mm 4 mps 740 mmHg 87%

    25 April, Wednesday

    Time Temperature Precipitation Wind Pressure Humidity
    00:00 +7°C° 0.1 mm 5 mps 740 mmHg 88%
    01:00 +8°C° 0.1 mm 5 mps 739 mmHg 89%
    02:00 +8°C° 0.1 mm 5 mps 739 mmHg 90%
    03:00 +8°C° 0 mm 5 mps 739 mmHg 90%
    04:00 +8°C° 0 mm 5 mps 739 mmHg 91%
    05:00 +8°C° 0 mm 5 mps 738 mmHg 92%
    06:00 +8°C° 0.1 mm 5 mps 738 mmHg 90%
    07:00 +8°C° 0.1 mm 5 mps 738 mmHg 88%
    08:00 +9°C° 0.1 mm 5 mps 738 mmHg 86%
    09:00 +9°C° 0.8 mm 5 mps 738 mmHg 87%
    10:00 +10°C° 0.8 mm 4 mps 738 mmHg 88%
    11:00 +10°C° 0.8 mm 4 mps 737 mmHg 89%
    12:00 +10°C° 0.4 mm 4 mps 737 mmHg 89%
    13:00 +10°C° 0.4 mm 4 mps 737 mmHg 89%
    14:00 +11°C° 0.4 mm 4 mps 736 mmHg 89%
    15:00 +10°C° 0.2 mm 4 mps 736 mmHg 87%
    16:00 +10°C° 0.2 mm 4 mps 737 mmHg 86%
    17:00 +9°C° 0.2 mm 5 mps 737 mmHg 84%
    18:00 +8°C° 0.1 mm 4 mps 737 mmHg 86%
    19:00 +7°C° 0.1 mm 4 mps 737 mmHg 87%
    20:00 +6°C° 0.1 mm 4 mps 737 mmHg 88%
    21:00 +5°C° 0 mm 4 mps 738 mmHg 90%
    22:00 +4°C° 0 mm 4 mps 738 mmHg 91%
    23:00 +4°C° 0 mm 4 mps 738 mmHg 93%
    Show more